This is the latest recevied weather packets stored in our database for station/object EA8CAY-10. If no packets are shown the sender has not sent any weather packets the latest 10 day(s).
| Time | Temp. | Humidity | Pressure | Rain* | Wind** | Luminosity | Snow |
|---|---|---|---|---|---|---|---|
| 1778280795 | 23.89° C | 62% | 1012.4 hPa | - | - | - | - |
| 1778279895 | 23.89° C | 62% | 1012.5 hPa | - | - | - | - |
| 1778278995 | 23.89° C | 63% | 1012.4 hPa | - | - | - | - |
| 1778278099 | 23.89° C | 66% | 1012.5 hPa | - | - | - | - |
| 1778277199 | 23.89° C | 62% | 1012.2 hPa | - | - | - | - |
| 1778276299 | 23.89° C | 64% | 1012.1 hPa | - | - | - | - |
| 1778275398 | 23.89° C | 64% | 1011.8 hPa | - | - | - | - |
| 1778274498 | 23.89° C | 64% | 1011.7 hPa | - | - | - | - |
| 1778273597 | 23.89° C | 64% | 1011.5 hPa | - | - | - | - |
| 1778272697 | 23.89° C | 64% | 1011.3 hPa | - | - | - | - |
| 1778271797 | 23.89° C | 64% | 1011.2 hPa | - | - | - | - |
| 1778270897 | 23.89° C | 63% | 1011 hPa | - | - | - | - |
| 1778269997 | 23.89° C | 63% | 1010.7 hPa | - | - | - | - |
| 1778269097 | 23.89° C | 63% | 1010.7 hPa | - | - | - | - |
| 1778268197 | 23.89° C | 63% | 1010.5 hPa | - | - | - | - |
| 1778267297 | 23.89° C | 63% | 1010.4 hPa | - | - | - | - |
| 1778266397 | 23.89° C | 63% | 1010.1 hPa | - | - | - | - |
| 1778265496 | 23.89° C | 63% | 1010.1 hPa | - | - | - | - |
| 1778264596 | 24.44° C | 63% | 1010 hPa | - | - | - | - |
| 1778263696 | 24.44° C | 62% | 1009.9 hPa | - | - | - | - |
| 1778262796 | 24.44° C | 63% | 1009.9 hPa | - | - | - | - |
| 1778261896 | 24.44° C | 63% | 1009.8 hPa | - | - | - | - |
| 1778260995 | 24.44° C | 62% | 1009.8 hPa | - | - | - | - |
| 1778260095 | 24.44° C | 62% | 1009.7 hPa | - | - | - | - |
| 1778259195 | 24.44° C | 61% | 1009.7 hPa | - | - | - | - |
* Rain since midnight (hover to see other rain measurements)
** Current wind speed in m/s (hover to see current wind gust speed)